Date,TemperatureHighF,TemperatureAvgF,TemperatureLowF,DewpointHighF,DewpointAvgF,DewpointLowF,HumidityHigh,HumidityAvg,HumidityLow,PressureMaxIn,PressureMinIn,WindSpeedMaxMPH,WindSpeedAvgMPH,GustSpeedMaxMPH,PrecipitationSumIn
2014-1-1,31.0,27.2,24.0,15.0,11.5,7.0,64,52,38,30.33,30.19,11,7,0,0.00
2014-1-2,32.0,22.8,14.0,30.0,21.2,12.0,95,92,90,30.25,29.71,23,18,0,0.00
2014-1-3,17.0,10.1,8.0,8.0,2.4,-9.0,92,72,42,30.37,29.58,26,20,0,0.00
2014-1-4,32.0,17.6,4.0,26.0,7.3,-99.9,85,70,61,30.47,30.28,8,5,0,0.00
2014-1-5,46.0,36.4,29.0,45.0,34.9,25.0,99,95,85,30.27,29.93,11,6,0,0.00
2014-1-6,53.0,48.5,46.0,50.0,47.9,46.0,100,98,91,29.82,29.31,23,16,0,0.00
2014-1-17,44.0,39.4,35.0,40.0,34.8,26.0,100,85,47,29.99,29.89,9,4,0,0.00
2014-1-18,39.0,37.3,36.0,39.0,34.3,-99.9,98,93,89,29.92,29.61,13,7,0,0.00
2014-1-19,37.0,34.7,31.0,34.0,27.7,25.0,91,75,63,29.75,29.61,21,10,0,0.00
2014-1-20,46.0,40.5,33.0,29.0,27.2,18.0,72,58,49,29.82,29.53,21,10,0,0.00
2014-1-21,30.0,21.1,15.0,17.0,10.1,-1.0,90,65,36,30.03,29.82,24,14,0,0.00
2014-1-22,21.0,14.4,11.0,12.0,4.7,-3.0,88,67,38,29.89,29.62,28,18,0,0.00
2014-1-23,22.0,12.0,7.0,5.0,-1.0,-3.0,68,55,40,30.07,29.90,9,6,0,0.00
2014-1-28,22.0,20.8,20.0,0.0,-5.6,-11.0,40,30,24,30.30,30.24,14,6,0,0.00
2014-1-29,27.0,19.9,16.0,14.0,8.2,-4.0,91,64,34,30.22,30.02,15,7,0,0.00
2014-1-30,32.0,23.0,14.0,14.0,3.8,-5.0,46,43,39,0.00,40.00,16,11,0,0.00
2014-1-31,42.0,37.7,34.0,25.0,21.0,17.0,51,51,51,0.00,40.00,7,7,0,0.00
2014-2-1,-200.0,0.0,200.0,-99.9,-99.9,-99.9,0,0,100,0.00,40.00,6,6,0,0.00
2014-2-2,-200.0,0.0,200.0,-99.9,-99.9,-99.9,0,0,100,0.00,40.00,8,6,0,0.00
2014-2-3,-200.0,0.0,200.0,-99.9,-99.9,-99.9,0,0,100,0.00,40.00,13,8,0,0.00
2014-2-18,-200.0,0.0,200.0,-99.9,-99.9,-99.9,0,0,100,0.00,40.00,21,21,0,0.00
2014-2-21,-200.0,0.0,200.0,-99.9,-99.9,-99.9,0,0,100,0.00,40.00,5,5,0,0.00
2014-3-29,-200.0,0.0,200.0,-99.9,-99.9,-99.9,0,0,100,0.00,40.00,14,14,0,0.00
2014-4-1,44.0,41.1,39.0,33.0,31.0,28.0,70,66,63,30.13,30.04,13,6,0,0.00
2014-4-2,68.0,57.9,45.0,56.0,46.9,34.0,82,67,61,30.12,30.02,18,12,0,0.00
2014-4-3,72.0,65.9,59.0,64.0,56.1,51.0,80,71,60,30.04,29.96,22,16,0,0.00
2014-4-4,69.0,68.5,67.0,68.0,66.5,65.0,96,92,88,30.00,29.91,32,25,0,0.00
2014-4-5,75.0,68.8,66.0,69.0,58.8,-99.9,95,75,63,30.03,29.85,39,23,0,0.00
2014-4-6,66.0,63.5,62.0,55.0,52.2,50.0,72,66,59,30.16,30.03,24,20,0,0.00
2014-4-7,74.0,68.5,64.0,70.0,64.5,55.0,96,87,71,30.15,29.88,28,22,0,0.00
2014-4-8,74.0,72.6,70.0,71.0,67.1,62.0,98,83,68,29.87,29.61,37,29,0,0.00
2014-4-9,72.0,66.2,62.0,61.0,55.5,46.0,83,69,51,30.06,29.55,38,20,0,0.00
2014-4-10,71.0,66.8,64.0,56.0,49.2,44.0,60,53,47,30.31,30.09,28,14,0,0.00
2014-4-11,72.0,69.8,67.0,61.0,56.5,52.0,82,63,53,30.32,30.23,32,24,0,0.00
2014-4-12,72.0,69.5,68.0,63.0,56.5,-99.9,82,67,54,30.27,30.18,23,15,0,0.00
2014-4-15,56.0,51.5,46.0,55.0,49.9,45.0,98,94,89,29.95,29.60,28,18,0,0.00
2014-4-16,44.0,38.3,33.0,38.0,23.0,14.0,87,57,29,30.54,29.73,23,16,0,0.00
2014-4-17,40.0,37.2,34.0,27.0,23.0,16.0,69,56,40,30.75,30.58,20,17,0,0.00
2014-4-18,44.0,38.7,35.0,36.0,31.2,27.0,81,74,61,30.62,30.29,16,10,0,0.00
2014-4-19,59.0,47.4,38.0,37.0,31.3,-99.9,91,59,29,30.36,30.17,17,7,0,0.00
2014-4-20,49.0,44.8,41.0,39.0,30.1,22.0,85,57,35,30.50,30.37,18,10,0,0.00
2014-4-21,49.0,44.5,39.0,43.0,40.0,37.0,93,84,74,30.34,29.90,18,8,0,0.00
2014-4-22,57.0,51.3,45.0,48.0,44.7,41.0,93,78,64,29.88,29.52,18,10,0,0.00
2014-4-23,54.0,49.7,46.0,50.0,42.7,32.0,97,78,47,29.62,29.44,24,11,0,0.00
2014-4-24,57.0,48.5,43.0,30.0,23.3,18.0,51,38,24,29.92,29.63,23,16,0,0.00
2014-4-25,52.0,47.5,43.0,37.0,27.9,22.0,73,47,33,30.01,29.87,21,12,0,0.00
2014-4-26,47.0,44.7,44.0,43.0,38.2,-99.9,90,81,70,29.87,29.76,16,8,0,0.00
2014-4-27,48.0,45.4,43.0,41.0,39.5,37.0,88,79,68,29.96,29.84,18,8,0,0.00
2014-4-28,53.0,49.5,47.0,38.0,36.1,34.0,67,59,49,30.09,30.01,16,10,0,0.00
2014-4-29,49.0,44.5,42.0,39.0,36.9,34.0,82,74,67,30.44,30.12,34,18,0,0.00
2014-4-30,60.0,51.7,41.0,52.0,43.8,33.0,84,74,61,30.45,30.32,34,27,0,0.00
2014-5-1,58.0,57.6,57.0,49.0,46.5,44.0,75,66,58,30.34,30.25,20,13,0,0.00
2014-6-1,-200.0,0.0,200.0,-99.9,-99.9,-99.9,0,0,100,0.00,40.00,16,16,0,0.00
2014-6-5,46.0,45.6,45.0,44.0,43.6,43.0,92,92,91,30.16,30.08,21,18,0,0.00
2014-6-6,46.0,45.4,43.0,44.0,41.3,40.0,92,85,79,30.22,30.14,17,10,0,0.00
2014-6-7,44.0,43.2,42.0,44.0,41.6,40.0,99,94,89,30.18,29.81,23,18,0,0.00
2014-6-9,39.0,38.7,38.0,39.0,38.3,38.0,99,99,99,29.73,29.69,13,9,0,0.00
2014-6-12,49.0,47.1,44.0,48.0,46.0,43.0,99,95,90,30.30,30.06,23,15,0,0.00
2014-6-13,56.0,52.1,50.0,55.0,50.6,48.0,97,95,92,30.30,30.09,24,14,0,0.00
2014-6-14,64.0,58.7,55.0,64.0,56.6,-99.9,99,98,94,30.07,29.81,23,18,0,0.00
2014-6-15,62.0,57.8,54.0,57.0,54.6,52.0,99,89,80,30.02,29.83,20,17,0,0.00
2014-6-16,70.0,65.2,61.0,57.0,51.2,46.0,84,61,42,30.14,30.03,17,11,0,0.00
2014-6-17,70.0,65.7,61.0,66.0,61.7,55.0,99,87,73,30.09,29.91,15,10,0,0.00
2014-6-18,83.0,75.0,63.0,69.0,63.6,62.0,99,70,48,29.94,29.77,18,9,0,0.00
2014-6-19,73.0,69.6,67.0,65.0,62.8,61.0,93,79,65,29.99,29.92,14,7,0,0.00
2014-6-20,74.0,73.0,72.0,45.0,41.7,37.0,35,31,27,29.88,29.87,13,9,0,0.00
2014-6-23,65.0,64.0,62.0,58.0,56.1,54.0,81,75,68,30.18,30.14,14,9,0,0.00
2014-6-24,70.0,65.3,61.0,63.0,59.6,56.0,89,81,69,30.19,30.06,23,11,0,0.00
2014-6-25,74.0,70.6,65.0,70.0,67.1,62.0,98,89,80,30.05,29.90,16,11,0,0.00
2014-6-26,79.0,71.8,69.0,71.0,69.5,68.0,99,93,75,29.88,29.80,11,8,0,0.00
2014-7-14,76.0,71.8,70.0,72.0,69.5,66.0,99,92,82,29.95,29.89,15,10,0,0.00
2014-7-15,73.0,71.2,69.0,73.0,71.1,69.0,99,98,94,29.90,29.79,17,13,0,0.00
2014-7-16,72.0,69.9,67.0,72.0,69.6,67.0,99,99,98,29.84,29.77,15,8,0,0.00
2014-7-17,75.0,70.0,67.0,69.0,61.2,53.0,99,75,48,30.06,29.85,13,7,0,0.00
2014-7-18,71.0,66.5,62.0,63.0,59.3,56.0,95,78,67,30.24,30.07,10,6,0,0.00
2014-7-19,68.0,63.7,58.0,65.0,60.4,58.0,99,88,77,30.28,30.22,10,6,0,0.00
2014-7-20,67.0,66.6,66.0,65.0,62.1,60.0,92,85,77,30.22,30.14,18,10,0,0.00
2014-7-21,67.0,65.4,64.0,63.0,62.5,61.0,96,90,81,30.20,30.14,18,10,0,0.00
2014-7-22,66.0,62.5,60.0,63.0,61.4,59.0,99,96,83,30.16,30.08,18,8,0,0.00
2014-7-23,76.0,66.9,61.0,70.0,64.9,60.0,99,93,74,30.09,29.92,20,14,0,0.00
2014-7-24,79.0,78.0,76.0,76.0,74.2,71.0,98,88,79,29.92,29.82,30,18,0,0.00
2014-7-25,80.0,79.8,79.0,76.0,75.2,75.0,90,88,87,29.87,29.85,23,22,0,0.00
2014-7-28,81.0,81.0,81.0,76.0,76.0,76.0,85,85,85,29.80,29.80,30,30,0,0.00
2014-8-17,75.0,74.1,71.0,70.0,67.9,66.0,87,81,74,29.94,29.83,18,15,0,0.00
2014-8-18,76.0,70.9,65.0,67.0,57.0,50.0,78,62,43,29.87,29.79,21,11,0,0.00
2014-8-19,70.0,65.5,58.0,62.0,54.3,50.0,86,68,51,29.96,29.87,14,7,0,0.00
2014-8-20,72.0,66.8,63.0,64.0,61.8,58.0,96,84,71,30.04,29.95,14,5,0,0.00
2014-8-21,70.0,66.3,61.0,65.0,61.7,58.0,93,85,76,30.09,30.03,11,7,0,0.00
2014-8-22,72.0,68.1,66.0,64.0,61.6,59.0,92,80,64,30.07,30.03,13,8,0,0.00
2014-8-23,71.0,66.2,64.0,62.0,58.5,54.0,89,75,63,30.10,30.05,21,13,0,0.00
2014-8-24,70.0,68.2,65.0,59.0,58.0,55.0,76,69,65,30.14,30.09,21,14,0,0.00
2014-8-25,74.0,71.3,70.0,65.0,62.0,58.0,80,72,65,30.17,30.11,21,14,0,0.00
2014-8-28,79.0,73.6,67.0,69.0,58.9,50.0,91,62,39,29.98,29.79,21,12,0,0.00
2014-8-29,71.0,65.4,60.0,59.0,52.7,49.0,78,63,49,30.26,30.00,11,8,0,0.00
2014-8-30,70.0,64.4,60.0,62.0,58.2,56.0,89,78,73,30.31,30.17,18,10,0,0.00
2014-8-31,77.0,72.8,67.0,72.0,68.6,63.0,94,86,77,30.16,29.98,15,12,0,0.00
2014-9-1,81.0,75.0,72.0,72.0,71.2,70.0,98,88,69,30.00,29.92,15,9,0,0.00
2014-9-2,83.0,73.6,71.0,73.0,70.9,69.0,99,91,64,29.95,29.79,17,8,0,0.00
2014-9-3,78.0,74.9,72.0,71.0,63.7,54.0,88,69,42,29.96,29.72,18,12,0,0.00
2014-9-5,75.0,73.5,68.0,72.0,71.1,67.0,95,92,89,30.17,30.03,14,11,0,0.00
2014-9-6,82.0,75.6,74.0,74.0,71.3,65.0,95,85,66,30.01,29.79,21,12,0,0.00
2014-9-7,77.0,70.7,65.0,65.0,58.4,49.0,89,67,36,30.19,29.90,17,10,0,0.00
2014-9-8,71.0,66.4,60.0,63.0,56.5,52.0,91,71,54,30.35,30.19,16,11,0,0.00
2014-9-9,70.0,65.9,63.0,60.0,56.5,52.0,86,71,57,30.33,30.18,17,12,0,0.00
2014-9-10,71.0,63.8,62.0,61.0,59.5,58.0,90,85,63,30.16,30.10,15,12,0,0.00
2014-9-11,74.0,72.2,69.0,70.0,67.0,63.0,94,84,74,29.91,29.82,21,14,0,0.00
2014-9-12,72.0,63.9,60.0,68.0,55.2,50.0,87,73,63,30.14,29.89,17,10,0,0.00
2014-9-13,80.0,76.3,75.0,76.0,71.8,71.0,90,83,83,30.09,30.03,15,11,0,0.00
2014-9-14,81.0,79.2,76.0,74.0,73.1,72.0,91,82,77,30.15,30.08,28,15,0,0.00
2014-9-15,80.0,77.8,76.0,74.0,71.0,69.0,88,79,73,30.14,30.06,21,16,0,0.00
2014-9-16,80.0,78.4,77.0,73.0,70.4,65.0,85,77,64,30.06,29.96,21,9,0,0.00
2014-9-17,80.0,77.3,74.0,70.0,68.4,67.0,84,74,66,29.92,29.85,23,14,0,0.00
2014-9-18,79.0,77.4,75.0,69.0,66.8,65.0,79,70,62,29.98,29.87,18,15,0,0.00
2014-9-19,78.0,77.9,77.0,69.0,66.2,64.0,75,67,60,30.12,29.98,26,18,0,0.00
2014-9-20,79.0,75.0,73.0,73.0,69.6,68.0,97,81,73,30.06,29.84,36,24,0,0.00
2014-9-21,82.0,79.6,77.0,75.0,70.9,65.0,86,75,59,29.90,29.65,32,22,0,0.00
2014-9-22,83.0,80.6,78.0,72.0,70.0,69.0,76,70,63,30.06,29.89,29,16,0,0.00
2014-9-23,77.0,74.6,70.0,69.0,64.3,61.0,78,70,60,30.22,30.08,26,23,0,0.00
2014-9-24,81.0,79.4,75.0,77.0,75.2,70.0,98,87,82,30.19,30.12,25,16,0,0.00
2014-9-25,81.0,79.8,77.0,77.0,75.6,74.0,89,86,83,30.19,30.11,17,14,0,0.00
2014-9-26,79.0,76.8,75.0,75.0,71.3,68.0,91,83,72,30.12,30.06,18,10,0,0.00
2014-9-27,77.0,75.8,73.0,70.0,67.8,64.0,88,76,65,30.10,30.06,23,20,0,0.00
2014-9-28,78.0,75.1,71.0,71.0,68.1,66.0,87,78,68,30.12,30.06,21,16,0,0.00
2014-9-29,79.0,76.8,72.0,72.0,69.9,68.0,92,79,69,30.04,29.89,22,8,0,0.00
2014-9-30,75.0,72.9,71.0,67.0,64.1,60.0,83,73,65,29.88,29.81,25,16,0,0.00
2014-10-1,75.0,73.2,71.0,67.0,65.2,64.0,86,76,67,30.02,29.87,20,13,0,0.00
2014-10-2,77.0,75.7,74.0,66.0,64.1,62.0,74,67,61,30.08,30.01,15,13,0,0.00
2014-10-3,78.0,75.3,74.0,65.0,61.9,59.0,66,63,58,30.07,29.91,17,10,0,0.00
2014-10-4,80.0,75.2,68.0,72.0,65.1,51.0,91,69,53,29.88,29.61,34,26,0,0.00
2014-10-5,69.0,62.6,59.0,54.0,44.6,38.0,63,51,43,30.04,29.75,33,12,0,0.00
2014-10-6,72.0,68.3,63.0,57.0,50.2,45.0,61,52,43,30.14,29.99,11,7,0,0.00
2014-10-7,77.0,75.0,72.0,63.0,60.8,57.0,64,61,58,30.18,30.10,10,8,0,0.00
2014-10-8,80.0,74.7,70.0,68.0,64.0,57.0,77,69,62,30.12,29.91,28,21,0,0.00
2014-10-9,71.0,64.8,60.0,56.0,44.4,36.0,59,47,39,30.01,29.92,29,19,0,0.00
2014-10-10,61.0,58.6,54.0,40.0,38.5,37.0,56,47,42,30.10,30.05,16,10,0,0.00
2014-10-13,62.0,62.0,62.0,53.0,53.0,53.0,70,70,70,30.31,30.31,14,14,0,0.00
2014-10-14,71.0,68.5,63.0,63.0,61.4,60.0,92,78,69,30.27,30.20,18,14,0,0.00
2014-10-15,69.0,68.5,68.0,65.0,64.8,64.0,91,88,86,30.12,30.03,20,15,0,0.00
2014-10-16,70.0,66.6,63.0,67.0,64.5,60.0,95,92,89,29.84,29.72,25,17,0,0.00
2014-10-17,68.0,66.3,63.0,58.0,54.8,52.0,80,66,57,29.69,29.67,17,14,0,0.00
2014-10-20,47.0,44.7,42.0,33.0,31.5,31.0,65,60,57,30.10,30.09,15,11,0,0.00
2014-10-29,68.0,65.0,63.0,60.0,60.0,60.0,88,84,75,29.79,29.78,14,10,0,0.00
2014-10-30,59.0,55.5,47.0,39.0,36.1,33.0,71,48,37,29.96,29.91,11,8,0,0.00
2014-10-31,54.0,51.6,48.0,43.0,42.4,41.0,77,70,63,30.03,29.93,14,9,0,0.00
2014-11-1,45.0,44.7,44.0,45.0,40.5,37.0,97,85,73,29.83,29.70,26,23,0,0.00
2014-11-2,47.0,41.6,36.0,38.0,27.9,17.0,95,61,34,29.90,29.57,38,30,0,0.00
2014-11-3,62.0,50.4,41.0,42.0,32.0,19.0,61,49,34,30.11,29.91,43,35,0,0.00
2014-11-4,66.0,62.7,60.0,49.0,43.1,35.0,55,48,35,30.18,30.10,31,20,0,0.00
2014-11-5,69.0,66.5,64.0,59.0,55.4,50.0,75,67,57,30.17,30.11,30,22,0,0.00
2014-11-6,65.0,54.4,49.0,54.0,47.5,42.0,92,78,53,30.15,29.68,11,8,0,0.00
2014-11-7,49.0,47.7,46.0,48.0,35.3,29.0,96,63,49,29.60,29.50,25,19,0,0.00
2014-11-10,55.0,53.5,51.0,41.0,39.1,37.0,68,58,51,30.20,30.14,21,21,0,0.00
2014-11-11,57.0,54.4,46.0,54.0,51.1,42.0,91,88,84,30.16,30.03,21,15,0,0.00
2014-11-12,57.0,54.1,50.0,56.0,53.9,50.0,99,99,98,29.90,29.85,9,4,0,0.00
2014-11-13,50.0,48.0,47.0,34.0,31.4,27.0,58,52,43,30.01,29.97,10,8,0,0.00
2014-11-14,42.0,39.8,37.0,24.0,19.6,17.0,49,44,38,30.03,29.93,15,12,0,0.00
2014-11-15,39.0,35.5,29.0,23.0,19.2,15.0,70,51,41,30.29,30.23,17,13,0,0.00
2014-11-16,44.0,43.5,42.0,35.0,33.0,29.0,71,66,59,30.27,30.23,9,4,0,0.00
2014-11-17,50.0,49.3,48.0,49.0,48.3,47.0,97,96,96,29.83,29.72,15,8,0,0.00
2014-11-18,45.0,43.0,41.0,36.0,31.0,26.0,70,62,54,29.66,29.59,23,20,0,0.00
2014-11-19,35.0,34.0,32.0,8.0,7.7,7.0,36,33,31,30.17,30.14,16,11,0,0.00
2014-11-24,63.0,62.5,61.0,61.0,60.2,59.0,93,92,89,29.67,29.64,26,24,0,0.00
2014-11-25,62.0,58.9,55.0,56.0,36.6,25.0,93,46,28,29.97,29.88,13,10,0,0.00
2014-11-26,37.0,36.3,36.0,36.0,35.7,35.0,97,96,95,29.93,29.82,24,23,0,0.00
2014-12-1,61.0,58.6,53.0,47.0,45.1,40.0,63,60,58,30.20,30.04,22,14,0,0.00
2014-12-2,39.0,37.8,36.0,29.0,24.9,21.0,71,59,54,30.66,30.60,22,16,0,0.00
2014-12-3,51.0,49.4,44.0,48.0,47.2,44.0,97,92,89,30.13,29.91,22,16,0,0.00
2014-12-4,43.0,38.7,35.0,22.0,20.7,19.0,58,48,37,30.54,30.34,11,10,0,0.00
2014-12-5,46.0,39.2,35.0,35.0,27.9,22.0,65,63,58,30.63,30.52,25,14,0,0.00
2014-12-6,69.0,62.8,48.0,57.0,53.9,42.0,79,73,61,30.48,30.12,34,22,0,0.00
2014-12-7,72.0,70.5,68.0,65.0,62.5,61.0,84,76,67,29.97,29.80,21,13,0,0.00